EW2407 Weather Reports


time (UTC)temp
C
wind
direction
speed
KPH
gust
KPH
rain 1hr
cm
rain 24hr
cm
rain mn
cm
humidity
%
barometer
mb
20260506061509 10 41 4.8 11.3 0.00 0.00 0.00 74 1011.0
20260506050106 7 360 4.8 11.3 0.00 0.00 0.00 79 1011.2
20260506044556 6 360 1.6 8.0 0.00 0.00 0.00 82 1011.2
20260506043055 5 360 4.8 11.3 0.00 0.00 0.00 84 1011.2
20260506041559 4 360 6.4 11.3 0.00 0.00 0.00 84 1011.1
20260506040105 4 360 6.4 11.3 0.00 0.00 0.00 84 1011.1
20260506034550 4 360 4.8 11.3 0.00 0.00 0.00 83 1011.1
20260506033048 4 360 4.8 9.7 0.00 0.00 0.00 83 1011.1
20260506031546 4 360 4.8 11.3 0.00 0.00 0.00 82 1011.1
20260506030058 4 360 4.8 11.3 0.00 0.00 0.00 82 1011.3
20260506024552 5 360 4.8 12.9 0.00 0.00 0.00 81 1011.3
20260506023038 5 360 4.8 9.7 0.00 0.00 0.00 81 1011.6
20260506021537 5 360 3.2 9.7 0.00 0.00 0.00 80 1011.8
20260506020034 5 360 4.8 9.7 0.00 0.00 0.00 81 1011.7
20260506014534 5 360 6.4 12.9 0.00 0.00 0.00 81 1011.7
20260506013028 5 360 4.8 14.5 0.00 0.00 0.00 79 1011.7
20260506011534 6 360 6.4 12.9 0.00 0.00 0.00 77 1011.6
20260506010022 6 360 4.8 14.5 0.00 0.00 0.00 74 1011.6
20260506004533 7 360 9.7 16.1 0.00 0.00 0.00 72 1011.4
20260506003023 7 360 8.0 14.5 0.00 0.00 0.00 69 1011.3
20260506001518 7 360 6.4 12.9 0.00 0.00 0.00 68 1011.3
20260506000018 7 360 4.8 12.9 0.00 0.00 0.00 69 1011.2
20260505234511 7 360 4.8 12.9 0.00 0.00 0.00 70 1011.4
20260505233009 7 355 4.8 12.9 0.00 0.00 0.00 71 1011.5
20260505231507 7 360 8.0 14.5 0.00 0.00 0.00 73 1011.3
20260505230006 7 360 4.8 12.9 0.00 0.00 0.00 75 1011.3
20260505224503 7 360 4.8 14.5 0.00 0.00 0.00 77 1011.4
20260505223102 7 360 3.2 14.5 0.00 0.00 0.00 78 1011.5
20260505221603 7 360 3.2 9.7 0.00 0.00 0.00 80 1011.7
20260505220054 7 360 3.2 9.7 0.00 0.00 0.00 83 1011.7
20260505214554 7 360 4.8 9.7 0.00 0.00 0.00 83 1011.7
20260505213057 7 360 4.8 9.7 0.00 0.00 0.00 84 1011.6
20260505211552 7 360 4.8 9.7 0.00 0.00 0.00 84 1011.7
20260505210051 7 360 1.6 8.0 0.00 0.00 0.00 84 1011.7
20260505204551 7 360 3.2 6.4 0.00 0.00 0.00 85 1011.6
20260505203053 7 360 0.0 6.4 0.00 0.00 0.00 86 1011.7
20260505201552 7 360 0.0 8.0 0.00 0.00 0.00 85 1011.7
20260505200048 7 360 1.6 8.0 0.00 0.00 0.00 86 1011.5
20260505194555 7 360 4.8 11.3 0.00 0.00 0.00 85 1011.6
20260505193102 7 360 3.2 9.7 0.00 0.00 0.00 85 1011.5
20260505191543 8 360 3.2 9.7 0.00 0.00 0.00 84 1011.4
20260505190042 8 360 3.2 9.7 0.00 0.00 0.00 82 1011.4
20260505184540 9 360 1.6 8.0 0.00 0.00 0.00 81 1011.3
20260505183040 10 360 3.2 11.3 0.00 0.00 0.00 79 1011.3
20260505181540 11 360 1.6 11.3 0.00 0.00 0.00 78 1011.3
20260505180043 11 360 6.4 12.9 0.00 0.00 0.00 76 1011.3
20260505174539 11 360 3.2 14.5 0.00 0.00 0.00 75 1011.3
20260505173036 11 360 6.4 16.1 0.00 0.00 0.00 74 1011.4
20260505171545 11 360 6.4 14.5 0.00 0.00 0.00 71 1011.3
20260505170038 11 360 6.4 17.7 0.00 0.00 0.00 71 1011.3
20260505164539 11 360 6.4 20.9 0.00 0.00 0.00 71 1011.4
20260505163040 11 360 12.9 22.5 0.00 0.00 0.00 69 1011.4
20260505161533 11 360 12.9 22.5 0.00 0.00 0.00 70 1011.5
20260505153037 10 360 22.5 27.4 0.00 0.00 0.00 55 1011.5
20260505151529 11 360 22.5 25.7 0.00 0.00 0.00 61 1011.6
20260505130116 11 360 16.1 22.5 0.00 0.00 0.00 59 1011.7
20260505124507 11 360 17.7 25.7 0.00 0.00 0.00 61 1011.6
20260505123005 11 360 14.5 24.1 0.00 0.00 0.00 66 1011.7
20260505121504 11 360 14.5 22.5 0.00 0.00 0.00 67 1011.7
20260505120002 11 360 14.5 24.1 0.00 0.00 0.00 68 1011.7
20260505114502 11 360 14.5 25.7 0.00 0.00 0.00 66 1011.7
20260505113108 11 360 16.1 24.1 0.00 0.00 0.00 65 1011.7
20260505111602 11 360 17.7 25.7 0.00 0.00 0.00 67 1011.7
20260505110108 11 360 12.9 22.5 0.00 0.00 0.00 67 1011.7
20260505101550 11 360 11.3 19.3 0.00 0.00 0.00 68 1011.7
20260505100047 10 360 12.9 20.9 0.00 0.00 0.00 67 1011.8
20260505094548 10 360 12.9 22.5 0.00 0.00 0.00 70 1011.7
20260505093043 10 360 12.9 24.1 0.00 0.00 0.00 68 1011.7
20260505091551 10 360 14.5 24.1 0.00 0.00 0.00 71 1011.7
20260505090045 10 360 14.5 24.1 0.00 0.00 0.00 73 1011.7
20260505084558 10 360 16.1 25.7 0.00 0.00 0.00 74 1011.5
20260505083057 10 360 19.3 25.7 0.00 0.00 0.00 75 1011.5
20260505081552 10 360 14.5 22.5 0.00 0.00 0.00 77 1011.3
20260505080044 10 360 19.3 25.7 0.00 0.00 0.00 76 1011.3
20260505074534 10 360 12.9 24.1 0.00 0.00 0.00 78 1011.3
20260505073047 10 360 19.3 25.7 0.00 0.00 0.00 78 1011.2
20260505071543 10 360 19.3 27.4 0.00 0.00 0.00 80 1011.2